Location: Cosy Dell
(34.2789°N, 117.4537°W)
Time: 20:26:34
(UTC+00:00)

CZ-4C R/B - Pass Details

Date: 27 October 2020
Orbit: 623 x 1378 km, 63.4° (Epoch: 03 December)

Event Time Altitude Azimuth Distance (km) Brightness Sun altitude
Rises 03:38:08 0° 342° (NNW) 3,842 5.9 -32.8°
Reaches altitude 10° 03:41:46 10° 1° (N) 3,029 5.1 -33.6°
Enters shadow 03:42:57 13° 10° (N) 2,843 4.9 -33.8°
